Regional Weather Roundup
Issued by NWS

Home | Current Version | Previous Version | Graphics & Text | Print | Product List | Glossary On
Versions: 1 2 3 4 5 6 7 8 9 10 11 12 13 14 15 16 17 18 19 20 21 22 23 24 25 26 27 28 29 30 31 32 33 34 35 36 37 38 39 40 41 42 43 44 45 46 47 48 49 50
000
ASUS43 KMKX 300800
RWRWI

WISCONSIN REGIONAL WEATHER ROUNDUP
NATIONAL WEATHER SERVICE MILWAUKEE/SULLIVAN WI
300 AM CDT SAT APR 30 2016

NOTE: "FAIR" INDICATES FEW OR NO CLOUDS BELOW 12,000 FEET WITH NO
SIGNIFICANT WEATHER AND/OR OBSTRUCTIONS TO VISIBILITY.

WIZ001-002-006>008-014>016-023>028-300900-
NORTHWEST WISCONSIN

CITY           SKY/WX    TMP DP  RH WIND       PRES   REMARKS
SUPERIOR ARPT  CLEAR     34  33  96 NE7       30.23S WCI  28
ASHLAND        PTCLDY    30  29  96 NE7       30.24S WCI  23
HAYWARD        PTCLDY    34  29  82 N6        30.18F WCI  29
SIREN          CLOUDY    37  29  75 NE5       30.18S WCI  33
CUMBERLAND     CLOUDY    37  30  75 NE5       30.15F WCI  34
RICE LAKE      CLOUDY    39  32  76 N7        30.16F WCI  34
CHETEK         CLOUDY    42  32  67 NE6       30.14F
LADYSMITH      CLOUDY    39  31  73 NE3       30.17S
EAU CLAIRE     NOT AVBL
MENOMONIE      CLOUDY    42  33  71 CALM      30.12F
NEW RICHMOND   CLOUDY    40  33  74 NE6       30.13F
OSCEOLA        CLOUDY    41  32  71 N3        30.17F
$$

WIZ003>005-009-010-017-018-300900-
NORTH CENTRAL WISCONSIN

CITY           SKY/WX    TMP DP  RH WIND       PRES   REMARKS
MANITOWISH WTR CLOUDY    38  31  76 NE5       30.19S WCI  34
ARBOR VITAE    PTCLDY    39  31  71 CALM      30.19R
WOODRUFF       PTCLDY    39  31  71 CALM      30.19R
RHINELANDER    CLEAR     37  28  70 E5        30.17F WCI  33
EAGLE RIVER    CLOUDY    33  30  88 CALM      30.18S
LAND O LAKES   CLOUDY    37  30  75 N5        30.20S WCI  33
PHILLIPS       CLOUDY    37  30  77 NE5       30.16S WCI  33
TOMAHAWK       CLEAR     33  32  94 CALM      30.18R
MEDFORD        CLOUDY    35  33  92 E7        30.14F WCI  29
MERRILL        CLOUDY    32  30  93 E3        30.17F
$$

WIZ029-030-035-036-043>047-300900-
CENTRAL WISCONSIN

CITY           SKY/WX    TMP DP  RH WIND       PRES   REMARKS
WAUSAU         CLOUDY    42  30  62 NE7       30.13F
MOSINEE        CLOUDY    36  30  80 NE9       30.15F WCI  29
MARSHFIELD     CLOUDY    40  33  76 E6        30.12F
STEVENS POINT  CLOUDY    33  30  90 CALM      30.14F
WAUPACA        PTCLDY    38  34  86 CALM      30.15F
WAUTOMA        CLOUDY    35  32  88 CALM      30.14
WISC RAPIDS    CLOUDY    39  31  72 E6        30.14F WCI  35
CAMP DOUGLAS   NOT AVBL
$$

WIZ011>013-019>022-031-037>040-048>050-300900-
NORTHEAST WISCONSIN

CITY           SKY/WX    TMP DP  RH WIND       PRES   REMARKS
ANTIGO         CLOUDY    33  29  84 CALM      30.18S
SHAWANO        PTCLDY    41  32  71 N5        30.18S
OCONTO         MOCLDY    35  35 100 N5        30.18R WCI  31
STURGEON BAY   CLOUDY    43  28  56 NE8       30.19S
GREEN BAY      PTCLDY    38  32  79 NE7       30.15F WCI  33
MANITOWOC      NOT AVBL
APPLETON       PTCLDY    37  28  70 NE3       30.13S
CLINTONVILLE   CLOUDY    34  32  93 NE6       30.16S WCI  29
OSHKOSH        PTCLDY    36  31  82 CALM      30.13F
$$

WIZ032>034-041-042-053>061-300900-
SOUTHWEST WISCONSIN

CITY           SKY/WX    TMP DP  RH WIND       PRES   REMARKS
LA CROSSE      CLOUDY    42  38  85 E5        30.10F
SPARTA         CLOUDY    33  32  98 CALM      30.11F
VIROQUA        CLOUDY    40  36  88 E7        30.07F WCI  35
BOSCOBEL       PTCLDY    41  38  89 NE3       30.09F
PRAIRIE DU CHI CLOUDY    40  37  90 CALM      30.07F
PLATTEVILLE    MOCLDY    41  39  95 NE10      30.06F
$$

WIZ056-057-062-063-064-067-068-300900-
SOUTH CENTRAL WISCONSIN

CITY           SKY/WX    TMP DP  RH WIND       PRES   REMARKS
REEDSBURG      CLOUDY    41  37  83 E5        30.09F
BARABOO/DELLS  CLOUDY    42  36  80 E7        30.10F
LONE ROCK      CLOUDY    42  37  82 E7        30.09F
MINERAL POINT  CLOUDY    41  37  87 E8        30.07F
MADISON        CLOUDY    42  36  79 E8        30.09F
MIDDLETON      CLOUDY    44  38  78 E6        30.10F
WATERTOWN      CLOUDY    41  32  70 NE5       30.11F
MONROE         CLOUDY    41  37  87 NE7       30.07F
JANESVILLE     CLOUDY    43  39  87 NE8       30.08F
$$

WIZ051-052-058>065-066-070>072-300900-
SOUTHEAST WISCONSIN

CITY           SKY/WX    TMP DP  RH WIND       PRES   REMARKS
MILWAUKEE      CLOUDY    42  34  73 NE8       30.12F
WAUKESHA       CLOUDY    37  30  75 NE3       30.13F
MILWAUKEE/TIMM CLOUDY    37  30  75 N5        30.13F WCI  34
RACINE         CLOUDY    44  36  73 E9        30.12F
BURLINGTON     CLOUDY    42  34  74 NE3       30.10F
KENOSHA        CLOUDY    44  37  76 NE8       30.09F
FOND DU LAC    CLOUDY    35  30  82 CALM      30.13F
SHEBOYGAN      PTCLDY    34  30  85 NW3       30.14S
WEST BEND      CLOUDY    34  30  86 CALM      30.14F
JUNEAU         CLOUDY    39  29  66 NE5       30.14F
$$

LSZ147-162-300900-
LAKE SUPERIOR

STATION/POSITION TIME  TEMP    WIND        PRES    WAVE
                       AIR SEA DIR/SP/G            HT/PER
                 (UTC) (F)     (DEG/KT/KT) (MB)    (FT/S)
W MID LAKE BUOY  0650   39 36   30/ 10/ 12 1024.9R   1
DEVILS ISLAND    0700   40      70/ 16/ 18 1024.7S
SAXON HARBOR     0700   30     190/  3/  4 1023.7
$$

LMZ867-665-643>646-300900-
LAKE MICHIGAN

STATION/POSITION TIME  TEMP    WIND        PRES    WAVE
                       AIR SEA DIR/SP/G            HT/PER
                 (UTC) (F)     (DEG/KT/KT) (MB)    (FT/S)
CHAMBERS ISLAND  0700   41      10/  9/ 11 1022.0
N MID LAKE BUOY  0650   40 38   30/ 10/ 10 1022.1R   0
NORTHPORT PIER   0700   42      30/  5/  7 1022.0S
ALGOMA LAKESHORE 0715          330/  9/ 10   N/A
KEWAUNEE LAKESHO 0700   45      10/  8/ 12 1020.3S
SHEBOYGAN LAKESH 0700   43      10/  2/  3 1021.7R
PORT WASHINGTON  0700   40     300/  2/  3 1021.7R
S MID LAKE BUOY  0650   42 40   70/  8/  8 1020.0F   1
KENOSHA   LAKESH 0700   43      60/ 11/ 14 1019.3F
$$

TC  - TEMPERATURE IN CELSIUS
VSB - VISIBILITY IN STATUTE MILES
WCI - WIND CHILL INDEX
HX  - HEAT INDEX





USA.gov is the U.S. government's official web portal to all federal, state and local government web resources and services.